Yellow Mule RAWS (NWS)

Jump to table bottom
Date/Time Wind Direction Wind Speed knots Wind Gust knots RH % Accumulated Precip Inches Air Temp Fahrenheit
2022-12-02 22:04 SSE 8 13 80 13.72 0
2022-12-02 21:04 SSE 10 21 80 13.72 -1
2022-12-02 20:04 SSE 10 23 79 13.72 0
2022-12-02 19:04 S 11 20 79 13.72 0
2022-12-02 18:04 SSE 10 12 80 13.72 -1
2022-12-02 17:04 S 11 23 80 13.72 1
2022-12-02 16:04 S 13 26 79 13.72 4
2022-12-02 15:04 S 13 30 79 13.72 5
2022-12-02 14:04 S 16 27 80 13.72 5
2022-12-02 13:04 SSW 15 27 79 13.72 4
2022-12-02 12:04 SSW 20 27 80 13.72 2
2022-12-02 11:04 SSW 15 24 79 13.72 4
2022-12-02 10:04 SSW 13 21 79 13.72 2
2022-12-02 09:04 SSW 13 18 80 13.72 0
2022-12-02 08:04 SW 7 13 81 13.72 0
2022-12-02 07:04 WSW 9 18 80 13.72 -1
2022-12-02 06:04 WSW 10 21 80 13.72 -1
2022-12-02 05:04 WSW 15 20 81 13.72 1
2022-12-02 04:04 WSW 10 16 82 13.72 3
2022-12-02 03:04 W 10 17 83 13.72 4
2022-12-02 02:04 W 11 16 85 13.72 6
2022-12-02 01:04 WSW 10 25 86 13.72 8
2022-12-02 00:04 WSW 14 24 87 13.72 11
2022-12-01 23:04 WSW 14 23 89 13.72 13
2022-12-01 22:04 WSW 15 31 90 13.72 16
2022-12-01 21:04 S 10 26 92 13.72 19
2022-12-01 20:04 SSE 12 34 92 13.72 19
2022-12-01 19:04 S 23 35 93 13.72 19
2022-12-01 18:04 S 19 38 92 13.72 19
2022-12-01 17:04 SSE 23 49 92 13.72 19
2022-12-01 16:04 SSE 24 40 92 13.72 19
2022-12-01 15:04 SSE 22 42 92 13.72 19
2022-12-01 14:04 SSE 20 37 91 13.72 19
2022-12-01 13:04 SSE 22 32 91 13.72 19
2022-12-01 12:04 S 17 27 91 13.72 19
2022-12-01 11:04 SSE 17 29 91 13.72 19
2022-12-01 10:04 S 12 28 91 13.72 18
2022-12-01 09:04 S 11 23 91 13.72 17
2022-12-01 08:04 SSE 15 25 91 13.72 18
2022-12-01 07:04 SSE 11 22 91 13.72 17
2022-12-01 06:04 SSE 9 15 91 13.72 17
2022-12-01 05:04 SE 6 13 90 13.72 16
2022-12-01 04:04 SE 3 7 89 13.72 14
2022-12-01 03:04 SE 5 10 89 13.72 14
2022-12-01 02:04 ESE 6 14 89 13.72 14
2022-12-01 01:04 SE 7 17 89 13.72 13
2022-12-01 00:04 SE 10 16 89 13.72 13
2022-11-30 23:04 SE 10 15 89 13.72 13
2022-11-30 22:04 S 4 10 89 13.72 13
2022-11-30 21:04 SSE 8 13 89 13.72 14